DW9177 Weather Reports


Display with metric or nautical units.
time (UTC)temp
F
wind
direction
speed
MPH
gust
MPH
rain 1hr
in
rain 24hr
in
rain mn
in
humidity
%
barometer
mb
20260906221521 98 137 4.0 13.0 0.00 0.00 0.00 29 1004.1
20260906220020 99 143 3.0 11.0 0.00 0.00 0.00 30 1004.2
20260906214518 99 153 4.0 11.0 0.00 0.00 0.00 29 1004.3
20260906213014 99 135 4.0 14.0 0.00 0.00 0.00 29 1004.5
20260906211509 98 119 3.0 11.0 0.00 0.00 0.00 31 1004.6
20260906210009 98 126 3.0 11.0 0.00 0.00 0.00 32 1004.7
20260906204503 98 138 5.0 11.0 0.00 0.00 0.00 32 1004.9
20260906203003 98 143 5.0 12.0 0.00 0.00 0.00 32 1005.2
20260906201559 97 146 3.0 9.0 0.00 0.00 0.00 32 1005.4
20260906200054 97 141 4.0 11.0 0.00 0.00 0.00 32 1005.5
20260906194603 97 141 2.0 7.0 0.00 0.00 0.00 32 1005.6
20260906193047 97 137 1.0 8.0 0.00 0.00 0.00 33 1005.8
20260906191547 96 143 4.0 7.0 0.00 0.00 0.00 33 1006.0
20260906190043 96 138 3.0 7.0 0.00 0.00 0.00 34 1006.4
20260906184540 94 132 3.0 6.0 0.00 0.00 0.00 35 1006.6
20260906183057 94 129 3.0 6.0 0.00 0.00 0.00 35 1006.8
20260906181544 93 143 2.0 6.0 0.00 0.00 0.00 36 1007.0
20260906180100 94 134 1.0 5.0 0.00 0.00 0.00 36 1007.1
20260906174537 92 125 3.0 7.0 0.00 0.00 0.00 37 1007.3
20260906173038 93 118 2.0 6.0 0.00 0.00 0.00 36 1007.3
20260906171533 93 124 1.0 5.0 0.00 0.00 0.00 36 1007.4
20260906170031 92 129 1.0 4.0 0.00 0.00 0.00 38 1007.3
20260906164531 91 124 1.0 3.0 0.00 0.00 0.00 38 1007.3
20260906163027 91 124 0.0 5.0 0.00 0.00 0.00 38 1007.3
20260906161537 89 102 1.0 3.0 0.00 0.00 0.00 39 1007.6
20260906160023 90 116 1.0 5.0 0.00 0.00 0.00 39 1007.6
20260906154521 89 98 0.0 5.0 0.00 0.00 0.00 40 1007.7
20260906153023 87 105 1.0 6.0 0.00 0.00 0.00 42 1007.8
20260906151518 84 114 1.0 6.0 0.00 0.00 0.00 46 1008.0
20260906150013 83 105 3.0 5.0 0.00 0.00 0.00 47 1007.9
20260906144514 81 110 3.0 6.0 0.00 0.00 0.00 51 1008.0
20260906143009 80 105 2.0 5.0 0.00 0.00 0.00 52 1008.1
20260906141507 79 109 0.0 4.0 0.00 0.00 0.00 54 1008.0
20260906140009 78 98 0.0 0.0 0.00 0.00 0.00 55 1007.7
20260906134504 77 103 0.0 0.0 0.00 0.00 0.00 55 1007.6
20260906133003 77 104 0.0 0.0 0.00 0.00 0.00 54 1007.5
20260906131502 77 104 0.0 0.0 0.00 0.00 0.00 54 1007.5
20260906130001 77 105 0.0 0.0 0.00 0.00 0.00 53 1007.3
20260906124604 77 105 0.0 3.0 0.00 0.00 0.00 53 1007.4
20260906123105 78 113 1.0 5.0 0.00 0.00 0.00 52 1007.2
20260906121555 78 104 2.0 6.0 0.00 0.00 0.00 53 1007.2
20260906120056 78 114 3.0 6.0 0.00 0.00 0.00 52 1007.2
20260906114552 78 113 3.0 8.0 0.00 0.00 0.00 52 1007.0
20260906113050 78 103 2.0 5.0 0.00 0.00 0.00 52 1006.9
20260906111551 79 102 3.0 6.0 0.00 0.00 0.00 52 1006.7
20260906110048 78 102 2.0 5.0 0.00 0.00 0.00 52 1006.7
20260906104550 78 103 1.0 5.0 0.00 0.00 0.00 53 1006.7
20260906103050 78 103 0.0 3.0 0.00 0.00 0.00 53 1006.7
20260906101547 78 105 0.0 4.0 0.00 0.00 0.00 53 1006.6
20260906100045 79 104 1.0 4.0 0.00 0.00 0.00 53 1006.4
20260906094555 79 107 1.0 4.0 0.00 0.00 0.00 54 1006.4
20260906093048 79 103 1.0 3.0 0.00 0.00 0.00 54 1006.4
20260906091541 79 108 0.0 2.0 0.00 0.00 0.00 53 1006.4
20260906090049 80 111 1.0 5.0 0.00 0.00 0.00 53 1006.4
20260906084539 80 110 3.0 7.0 0.00 0.00 0.00 52 1006.5
20260906083045 81 105 2.0 5.0 0.00 0.00 0.00 52 1006.5
20260906081536 81 104 3.0 6.0 0.00 0.00 0.00 51 1006.5
20260906080038 81 105 4.0 7.0 0.00 0.00 0.00 52 1006.6
20260906074533 81 101 2.0 5.0 0.00 0.00 0.00 52 1006.9
20260906073029 81 106 3.0 5.0 0.00 0.00 0.00 52 1006.8
20260906071528 80 177 0.0 2.0 0.00 0.00 0.00 52 1007.0
20260906070024 81 102 1.0 2.0 0.00 0.00 0.00 52 1007.0
20260906064524 81 101 1.0 3.0 0.00 0.00 0.00 51 1006.9
20260906063024 81 101 0.0 0.0 0.00 0.00 0.00 52 1006.9
20260906061523 81 100 0.0 0.0 0.00 0.00 0.00 52 1007.0
20260906060024 82 101 0.0 1.0 0.00 0.00 0.00 52 1007.0
20260906054522 82 102 0.0 0.0 0.00 0.00 0.00 50 1006.9
20260906053024 83 91 0.0 0.0 0.00 0.00 0.00 48 1007.0
20260906051522 84 150 0.0 0.0 0.00 0.00 0.00 48 1006.9
20260906050021 85 151 0.0 0.0 0.00 0.00 0.00 45 1006.9
20260906044520 86 151 0.0 0.0 0.00 0.00 0.00 44 1006.9
20260906043028 87 151 0.0 3.0 0.00 0.00 0.00 42 1006.8
20260906041519 87 136 0.0 2.0 0.00 0.00 0.00 42 1006.9
20260906040018 88 133 0.0 4.0 0.00 0.00 0.00 41 1006.9
20260906034531 88 134 0.0 2.0 0.00 0.00 0.00 41 1006.8
20260906033017 89 135 1.0 4.0 0.00 0.00 0.00 40 1006.6
20260906031525 89 138 2.0 5.0 0.00 0.00 0.00 39 1006.4
20260906030017 90 140 1.0 6.0 0.00 0.00 0.00 39 1006.3
20260906024515 90 136 1.0 6.0 0.00 0.00 0.00 39 1006.1
20260906023014 90 134 3.0 7.0 0.00 0.00 0.00 38 1006.0
20260906021514 91 139 4.0 10.0 0.00 0.00 0.00 38 1005.9
20260906020013 91 122 5.0 10.0 0.00 0.00 0.00 38 1005.9
20260906014513 91 158 3.0 11.0 0.00 0.00 0.00 37 1005.8
20260906013013 92 136 4.0 9.0 0.00 0.00 0.00 37 1005.7
20260906011512 92 148 4.0 12.0 0.00 0.00 0.00 36 1005.8
20260906010011 93 134 4.0 11.0 0.00 0.00 0.00 36 1005.8
20260906004510 95 144 4.0 12.0 0.00 0.00 0.00 35 1005.7
20260906003010 95 157 4.0 11.0 0.00 0.00 0.00 35 1005.8
20260906001508 96 129 4.0 9.0 0.00 0.00 0.00 34 1005.7
20260906000008 96 136 4.0 12.0 0.00 0.00 0.00 33 1005.7
20260905234507 97 140 4.0 12.0 0.00 0.00 0.00 33 1005.6
20260905233006 97 139 3.0 11.0 0.00 0.00 0.00 32 1005.6
20260905231510 97 127 4.0 10.0 0.00 0.00 0.00 32 1005.6
20260905230003 97 152 3.0 10.0 0.00 0.00 0.00 32 1005.8
20260905224502 97 151 3.0 10.0 0.00 0.00 0.00 32 1005.9
20260905223004 98 144 5.0 10.0 0.00 0.00 0.00 31 1005.9